Stations météo

réclame
Mon MeteoGroup
Pelzerhaken, Allemagne (10152): Température de l'air & dewpoint: 05.12.2019 10:00:00 - 11.12.2019 10:00:00 (CET)Pelzerhaken, Allemagne (10152): Température de l'air 5cm & Température de l'air -5cm: 05.12.2019 10:00:00 - 11.12.2019 10:00:00 (CET)Pelzerhaken, Allemagne (10152): Température de l'air -20cm & Température de l'air -100cm: 05.12.2019 10:00:00 - 11.12.2019 10:00:00 (CET)Pelzerhaken, Allemagne (10152): Vitesse du vent & gusts: 05.12.2019 10:00:00 - 11.12.2019 10:00:00 (CET)Pelzerhaken, Allemagne (10152): Direction du vent: 05.12.2019 10:00:00 - 11.12.2019 10:00:00 (CET)Pelzerhaken, Allemagne (10152): reduced air pressure: 05.12.2019 10:00:00 - 11.12.2019 10:00:00 (CET)Pelzerhaken, Allemagne (10152): visibility: 05.12.2019 10:00:00 - 11.12.2019 10:00:00 (CET)Pelzerhaken, Allemagne (10152): Ensoleillement: 05.12.2019 10:00:00 - 11.12.2019 10:00:00 (CET)Pelzerhaken, Allemagne (10152): Quantités de précipitations: 05.12.2019 10:00:00 - 11.12.2019 10:00:00 (CET)
Date & Time tt [°C] td [°C] tt 5cm [°C] tt -5cm [°C] tt -20cm [°C] tt -100cm [°C] ff [km/h] ff [knt] fx [km/h] fx [knt] dd ppp [hPa] vv [km] sd [min] rr [mm]
11.12.2019 10:00:00 4,8 4,0 4,2 4,1 4,2 8,0 27 14 38 20 SW 1008,2 13 0 0,1
11.12.2019 09:00:00 5,1 4,0 4,4 4,0 4,2 8,0 33 18 45 24 SSW 1008,3 11 0 0,0
11.12.2019 08:00:00 5,4 3,4 4,5 3,9 4,1 8,0 31 17 51 28 SSW 1008,2 9 0 0,0
11.12.2019 07:00:00 5,6 2,8 5,1 3,8 4,0 8,0 39 21 55 30 SSW 1008,1 38 0 0,0
11.12.2019 06:00:00 5,6 2,7 5,0 3,7 4,0 8,0 42 23 59 32 SSW 1008,0 37 0 0,0
11.12.2019 05:00:00 5,1 2,5 4,6 3,5 3,9 8,0 44 24 62 33 SSW 1008,3 37 0 0,0
11.12.2019 04:00:00 4,8 2,0 4,1 3,4 3,8 8,1 48 26 64 34 SSW 1009,0 39 0 0,0
11.12.2019 03:00:00 4,3 2,3 3,2 3,3 3,8 8,1 48 26 62 34 S 1009,4 9 0 0,5
11.12.2019 02:00:00 4,9 1,4 3,9 3,2 3,7 8,1 49 26 61 33 S 1010,3 34 0 0,0
11.12.2019 01:00:00 4,8 1,3 4,1 3,0 3,7 8,1 49 26 60 32 S 1011,0 30 0 0,0
11.12.2019 00:00:00 4,9 1,2 4,3 2,9 3,7 8,1 45 24 59 32 S 1012,4 32 0 0,0
10.12.2019 23:00:00 4,4 1,2 3,8 2,7 3,6 8,1 46 25 58 31 S 1013,2 27 0 0,0
10.12.2019 22:00:00 4,3 1,4 3,4 2,5 3,7 8,1 45 24 55 30 S 1014,7 29 0 0,0
10.12.2019 21:00:00 4,4 1,7 3,4 2,5 3,7 8,1 44 24 55 30 S 1016,3 26 0 0,0
10.12.2019 20:00:00 4,4 1,9 3,2 2,5 3,8 8,2 43 23 52 28 S 1017,1 24 0 0,0
10.12.2019 19:00:00 4,7 2,4 3,5 2,6 3,8 8,2 41 22 50 27 S 1017,9 26 0 0,0
10.12.2019 18:00:00 4,9 2,5 3,7 2,8 3,9 8,2 37 20 43 23 S 1018,5 28 0 0,0
10.12.2019 17:00:00 5,4 2,7 4,0 3,0 3,9 8,2 34 18 42 23 SSW 1019,4 30 0 0,0
10.12.2019 16:00:00 5,8 2,4 4,5 3,5 3,7 8,2 28 15 35 19 SSW 1020,2 30 23 0,0
10.12.2019 15:00:00 6,3 2,4 5,2 4,0 3,5 8,2 20 11 31 17 SW 1020,4 31 19 0,0
10.12.2019 14:00:00 5,9 2,5 5,4 3,6 3,3 8,2 19 10 27 14 SW 1021,0 31 7 0,0
10.12.2019 13:00:00 6,0 2,2 5,6 3,2 3,0 8,2 14 8 26 14 WSW 1021,5 27 60 0,0
10.12.2019 12:00:00 5,2 1,6 4,8 1,2 3,0 8,2 15 8 25 14 WSW 1021,7 34 59 0,0
10.12.2019 11:00:00 4,3 1,1 3,1 0,7 3,1 8,2 14 8 20 11 WSW 1021,3 29 60 0,0
10.12.2019 10:00:00 2,9 0,4 0,8 0,7 3,2 8,2 7 4 19 10 W 1020,9 29 55 0,0
10.12.2019 09:00:00 2,1 0,1 -0,3 0,8 3,3 8,3 8 5 19 10 W 1020,3 30 0 0,0
10.12.2019 08:00:00 2,1 0,0 -1,3 0,8 3,4 8,3 9 5 18 10 W 1019,6 25 0 0,0
10.12.2019 07:00:00 2,3 -0,3 -0,4 0,9 3,5 8,3 9 5 17 9 W 1018,6 27 0 0,0
10.12.2019 06:00:00 2,6 -0,1 0,2 1,0 3,7 8,3 11 6 21 11 W 1017,6 31 0 0,0
10.12.2019 05:00:00 2,9 -0,1 0,7 1,0 3,9 8,3 13 7 21 12 WNW 1016,7 33 0 0,0
10.12.2019 04:00:00 2,8 0,1 0,5 1,1 4,1 8,3 10 5 21 11 WNW 1015,1 36 0 0,0
10.12.2019 03:00:00 3,1 0,4 0,3 1,2 4,4 8,3 8 5 26 14 W 1013,6 33 0 0,0
10.12.2019 02:00:00 3,3 0,3 0,6 1,6 4,6 8,3 10 5 26 14 W 1012,3 50 0 0,0
10.12.2019 01:00:00 3,9 0,4 1,6 2,2 4,9 8,3 12 7 25 13 W 1010,9 47 0 0,0
10.12.2019 00:00:00 4,6 0,9 2,4 2,9 5,0 8,3 11 6 29 16 WNW 1009,2 36 0 0,0
09.12.2019 23:00:00 5,4 1,8 4,0 3,0 5,2 8,3 18 10 40 22 WNW 1007,5 28 0 0,0
09.12.2019 22:00:00 5,5 1,4 3,7 3,0 5,4 8,3 18 10 39 21 WNW 1005,7 26 0 0,0
09.12.2019 21:00:00 5,6 1,4 3,6 3,3 5,7 8,2 19 11 40 22 W 1004,0 25 0 0,0
09.12.2019 20:00:00 5,8 2,0 3,6 3,8 5,9 8,2 16 8 31 17 WNW 1002,7 24 0 0,0
09.12.2019 19:00:00 5,9 3,2 3,6 4,5 6,1 8,2 11 6 22 12 W 1001,3 27 0 0,0
09.12.2019 18:00:00 5,8 4,6 3,6 5,2 6,2 8,2 9 5 22 12 W 999,9 34 0 0,0
09.12.2019 17:00:00 6,6 5,4 5,7 6,0 6,2 8,2 13 7 29 15 W 998,4 16 0 0,0
09.12.2019 16:00:00 7,3 5,2 6,6 6,2 6,2 8,2 16 9 35 19 WSW 997,1 38 0 0,0
09.12.2019 15:00:00 7,7 4,8 7,2 6,3 6,2 8,2 25 14 39 21 SW 995,9 35 0 0,0
09.12.2019 14:00:00 7,8 4,8 7,2 6,3 6,1 8,2 23 12 37 20 SW 995,1 36 0 0,0
09.12.2019 13:00:00 7,9 4,5 7,3 6,4 5,9 8,2 29 15 41 22 SW 994,7 24 0 0,0
09.12.2019 12:00:00 7,7 4,6 7,0 6,3 5,8 8,2 27 15 49 27 SW 994,1 34 0 0,0
09.12.2019 11:00:00 7,6 4,8 6,9 5,6 5,7 8,2 34 19 45 24 SSW 994,1 33 22 0,0
09.12.2019 10:00:00 7,1 4,4 6,4 5,3 5,6 8,2 32 17 48 26 SW 993,8 34 0 0,0
09.12.2019 09:00:00 7,0 4,2 6,4 4,9 5,6 8,2 31 17 48 26 SW 993,3 36 0 0,0
09.12.2019 08:00:00 6,9 4,2 6,0 4,7 5,6 8,2 31 17 48 26 SSW 992,7 31 0 0,0
09.12.2019 07:00:00 6,7 4,5 5,4 4,3 5,7 8,2 31 17 48 26 SW 992,3 29 0 0,0
09.12.2019 06:00:00 6,5 3,5 5,2 4,4 5,9 8,2 34 18 55 30 SW 992,2 38 0 0,0
09.12.2019 05:00:00 6,5 3,9 5,2 4,5 6,0 8,2 35 19 54 29 SW 992,1 34 0 0,0
09.12.2019 04:00:00 6,9 4,1 5,7 4,6 6,1 8,2 35 19 61 33 SW 992,0 34 0 0,0
09.12.2019 03:00:00 7,0 4,0 5,6 4,8 6,2 8,1 35 19 54 29 SW 991,9 39 0 0,0
09.12.2019 02:00:00 7,0 4,0 5,7 5,0 6,4 8,1 33 18 48 26 SW 991,6 37 0 0,0
09.12.2019 01:00:00 7,5 4,6 6,5 5,4 6,5 8,1 33 18 48 26 SW 991,8 29 0 0,0
09.12.2019 00:00:00 7,1 4,7 6,1 5,5 6,6 8,1 29 16 49 26 SW 992,1 30 0 0,0
08.12.2019 23:00:00 8,1 4,5 7,0 5,5 6,7 8,1 36 19 55 30 SW 992,1 31 0 0,0
08.12.2019 22:00:00 7,8 4,6 6,6 5,6 6,9 8,1 31 17 54 29 SW 992,4 31 0 0,0
08.12.2019 21:00:00 8,2 4,8 6,7 5,9 7,0 8,1 32 17 49 26 SW 992,4 35 0 0,0
08.12.2019 20:00:00 8,5 5,3 7,1 6,1 7,2 8,1 29 16 48 26 SW 992,5 31 0 0,0
08.12.2019 19:00:00 8,5 5,4 7,1 6,6 7,4 8,1 28 15 52 28 WSW 992,8 34 0 0,0
08.12.2019 18:00:00 9,2 5,8 7,8 7,3 7,4 8,1 27 14 51 27 WSW 992,6 23 0 0,0
08.12.2019 17:00:00 9,7 6,4 8,1 7,7 7,4 8,1 29 15 66 36 WSW 992,3 40 0 0,0
08.12.2019 16:00:00 10,2 7,9 8,9 8,2 7,4 8,0 34 18 61 33 WSW 991,7 51 0 2,2
08.12.2019 15:00:00 10,1 8,5 9,0 8,3 7,2 8,0 40 22 65 35 SW 991,2 35 0 0,0
08.12.2019 14:00:00 9,6 8,6 8,7 8,2 7,1 8,0 41 22 65 35 SW 991,7 12 0 0,1
08.12.2019 13:00:00 9,2 8,3 8,4 7,9 7,0 8,0 44 24 67 36 SW 992,1 12 0 0,1
08.12.2019 12:00:00 8,9 7,9 8,0 7,5 6,9 8,0 39 21 63 34 SW 993,1 11 0 0,0
08.12.2019 11:00:00 8,5 7,5 7,7 7,3 6,8 8,0 41 22 65 35 SW 994,3 5 0 0,0
08.12.2019 10:00:00 8,5 6,9 7,4 7,0 6,8 8,0 35 19 61 33 SW 995,2 18 0 0,6
08.12.2019 09:00:00 9,1 5,9 8,1 6,9 6,8 8,0 36 20 64 34 SW 996,5 28 0 0,0
08.12.2019 08:00:00 9,1 5,9 8,4 6,9 6,7 8,0 39 21 61 33 SW 997,1 36 0 0,0
08.12.2019 07:00:00 9,0 5,9 8,4 6,9 6,7 8,0 39 21 66 36 SW 998,3 34 0 0,0
08.12.2019 06:00:00 8,8 6,1 8,2 6,8 6,7 8,0 35 19 50 27 SW 999,8 32 0 0,0
08.12.2019 05:00:00 8,5 5,6 8,0 6,7 6,7 7,9 35 19 50 27 SSW 1001,2 35 0 0,0
08.12.2019 04:00:00 8,5 5,4 7,6 6,7 6,7 7,9 31 17 49 26 SW 1002,8 35 0 0,0
08.12.2019 03:00:00 8,5 5,9 7,6 6,8 6,7 7,9 29 15 51 27 SW 1004,0 31 0 0,0
08.12.2019 02:00:00 8,5 6,3 7,6 6,9 6,7 7,9 29 16 44 24 SW 1005,0 29 0 0,0
08.12.2019 01:00:00 8,7 6,6 7,7 6,9 6,7 7,9 27 14 45 24 SW 1005,9 30 0 0,0
08.12.2019 00:00:00 8,7 6,9 7,7 6,9 6,6 7,9 22 12 35 19 WSW 1007,0 30 0 0,0
07.12.2019 23:00:00 8,5 7,0 7,5 6,8 6,6 7,9 21 12 36 19 WSW 1007,1 28 0 0,0
07.12.2019 22:00:00 8,3 7,5 7,4 6,7 6,5 7,9 20 11 32 17 WSW 1007,1 27 0 0,2
07.12.2019 21:00:00 7,9 7,4 7,2 6,5 6,5 7,9 16 9 40 22 WSW 1007,3 12 0 0,0
07.12.2019 20:00:00 8,1 6,7 7,0 6,3 6,6 7,9 18 10 34 19 WSW 1007,3 47 0 0,0
07.12.2019 19:00:00 8,0 6,4 6,7 6,2 6,6 7,8 16 9 30 16 WSW 1007,4 46 0 0,0
07.12.2019 18:00:00 7,9 6,4 6,7 6,1 6,7 7,8 14 8 29 16 WSW 1007,0 43 0 0,0
07.12.2019 17:00:00 8,3 6,2 6,8 6,2 6,9 7,8 16 8 31 17 WSW 1006,7 45 0 0,0
07.12.2019 16:00:00 7,5 5,8 5,8 6,5 7,0 7,8 13 7 37 20 WNW 1006,2 48 0 0,3
07.12.2019 15:00:00 7,4 5,6 6,4 7,4 7,0 7,8 20 11 42 23 W 1005,2 21 0 0,4
07.12.2019 14:00:00 8,9 6,7 8,1 7,7 6,9 7,8 17 9 34 18 WSW 1004,7 38 8 0,0
07.12.2019 13:00:00 9,1 6,4 8,4 7,7 6,8 7,8 13 7 31 17 W 1004,3 38 29 0,0
07.12.2019 12:00:00 8,8 6,4 8,2 7,5 6,7 7,8 12 6 31 17 W 1004,0 46 12 0,0
07.12.2019 11:00:00 8,7 6,4 7,9 7,3 6,7 7,8 15 8 36 19 W 1003,6 51 32 0,0
07.12.2019 10:00:00 8,8 7,0 7,9 7,4 6,6 7,8 23 13 42 23 W 1002,8 69 3 0,1
07.12.2019 09:00:00 8,9 7,5 7,8 7,2 6,5 7,8 18 10 39 21 W 1001,2 6 0 0,0
07.12.2019 08:00:00 9,0 7,8 7,9 7,2 6,5 7,8 16 9 38 20 W 999,6 24 0 0,0
07.12.2019 07:00:00 8,8 8,2 8,0 7,2 6,4 7,8 16 9 36 20 W 998,7 18 0 0,2
07.12.2019 06:00:00 8,8 8,0 7,9 7,1 6,3 7,8 21 12 42 23 WSW 997,7 26 0 0,0
07.12.2019 05:00:00 8,5 7,8 7,7 6,9 6,2 7,8 22 12 43 23 WSW 997,2 24 0 0,2
07.12.2019 04:00:00 8,3 7,5 7,5 6,9 6,2 7,8 28 15 51 27 SW 996,9 26 0 0,2
07.12.2019 03:00:00 8,1 7,6 7,4 6,8 6,1 7,7 34 18 51 28 SW 997,0 3,5 0 0,0
07.12.2019 02:00:00 7,9 7,6 7,4 6,7 6,0 7,7 29 16 54 29 SW 997,2 3,9 0 0,3
07.12.2019 01:00:00 8,2 7,6 7,4 6,6 5,9 7,7 35 19 52 28 SW 997,6 9 0 0,1
07.12.2019 00:00:00 7,9 7,5 7,2 6,5 5,8 7,7 29 16 51 28 SW 998,1 9 0 0,0
06.12.2019 23:00:00 7,7 7,3 7,1 6,3 5,7 7,7 29 16 47 25 SW 998,5 15 0 0,1
06.12.2019 22:00:00 7,4 7,1 6,8 6,1 5,6 7,7 31 17 48 26 SW 999,0 7 0 0,0
06.12.2019 21:00:00 7,1 6,8 6,5 5,9 5,6 7,7 32 18 49 26 SW 999,6 4,8 0 0,0
06.12.2019 20:00:00 6,7 6,3 6,1 5,8 5,6 7,7 34 18 51 28 SW 1000,1 5 0 0,1
06.12.2019 19:00:00 6,5 6,0 5,9 5,7 5,5 7,7 34 18 48 26 SW 1000,5 7 0 0,0
06.12.2019 18:00:00 6,5 6,0 5,8 5,7 5,5 7,7 34 18 46 25 SW 1001,1 19 0 0,1
06.12.2019 17:00:00 6,3 5,9 5,8 5,8 5,5 7,7 32 17 53 29 SW 1001,4 8 0 0,4
06.12.2019 16:00:00 6,6 6,0 6,0 5,8 5,4 7,7 34 18 47 26 SW 1001,6 29 0 0,0
06.12.2019 15:00:00 6,5 5,9 6,0 5,9 5,4 7,7 30 16 53 29 SW 1002,4 3,9 0 0,0
06.12.2019 14:00:00 6,5 5,7 6,0 5,9 5,3 7,7 32 17 50 27 SW 1003,2 15 0 0,0
06.12.2019 13:00:00 6,4 5,6 5,9 5,9 5,1 7,7 33 18 56 30 SW 1004,1 3,9 0 0,0
06.12.2019 12:00:00 6,4 5,8 6,0 5,8 5,0 7,7 36 19 52 28 SW 1004,6 14 0 0,0
06.12.2019 11:00:00 6,5 5,7 6,0 5,5 4,9 7,8 33 18 50 27 SW 1005,1 13 0 0,0
06.12.2019 10:00:00 6,5 5,8 5,9 5,4 4,8 7,8 33 18 53 29 SW 1005,1 8 0 0,0
06.12.2019 09:00:00 6,8 5,8 6,1 5,2 4,7 7,8 35 19 57 31 SW 1004,8 11 0 0,0
06.12.2019 08:00:00 6,8 5,8 6,4 5,0 4,5 7,8 39 21 57 31 SW 1004,6 10 0 0,0
06.12.2019 07:00:00 6,3 5,5 5,7 4,6 4,4 7,8 36 20 57 31 SW 1004,7 6 0 0,0
06.12.2019 06:00:00 5,9 4,5 5,3 4,3 4,3 7,8 38 20 59 32 SW 1004,9 9 0 0,0
06.12.2019 05:00:00 5,4 3,8 4,9 4,0 4,3 7,8 40 21 61 33 SW 1005,1 7 0 0,0
06.12.2019 04:00:00 5,1 2,8 4,7 3,8 4,3 7,8 37 20 63 34 SW 1005,9 10 0 0,0
06.12.2019 03:00:00 4,9 2,3 4,3 3,6 4,3 7,8 40 21 60 32 SW 1006,3 11 0 0,0
06.12.2019 02:00:00 4,2 2,1 3,7 3,6 4,3 7,8 34 18 54 29 SW 1006,8 10 0 0,0
06.12.2019 01:00:00 3,9 2,0 3,5 3,7 4,4 7,8 37 20 56 30 SW 1008,1 8 0 0,0
06.12.2019 00:00:00 4,6 3,5 4,2 4,0 4,3 7,8 35 19 58 31 SW 1009,2 8 0 0,0
05.12.2019 23:00:00 4,7 3,2 4,4 4,0 4,3 7,8 37 20 52 28 SW 1009,9 8 0 0,0
05.12.2019 22:00:00 4,9 3,5 4,5 4,0 4,3 7,8 32 17 54 29 SW 1011,4 7 0 0,0
05.12.2019 21:00:00 5,0 3,6 4,6 4,0 4,2 7,8 34 18 48 26 SW 1012,1 8 0 0,0
05.12.2019 20:00:00 4,8 3,6 4,4 3,8 4,2 7,8 29 15 44 24 SW 1013,2 8 0 0,0
05.12.2019 19:00:00 4,7 3,5 4,3 3,7 4,2 7,8 28 15 42 23 SW 1013,6 9 0 0,0
05.12.2019 18:00:00 4,6 2,6 4,2 3,6 4,2 7,8 28 15 40 22 SW 1014,4 14 0 0,0
05.12.2019 17:00:00 4,8 2,3 4,3 3,5 4,2 7,8 27 14 42 23 SW 1014,6 17 0 0,0
05.12.2019 16:00:00 5,0 2,3 3,7 3,6 4,2 7,8 27 15 40 21 SW 1015,0 18 7 0,0
05.12.2019 15:00:00 5,6 2,5 4,5 4,3 4,1 7,8 23 13 32 17 SW 1015,6 17 60 0,0
05.12.2019 14:00:00 5,9 2,8 5,6 4,7 3,9 7,8 19 11 31 17 SW 1016,0 14 60 0,0
05.12.2019 13:00:00 5,5 1,9 5,4 4,3 3,6 7,8 20 11 30 16 SW 1016,6 14 60 0,0
05.12.2019 12:00:00 5,1 1,7 5,1 3,5 3,4 7,8 16 9 24 13 SW 1017,0 14 60 0,0
05.12.2019 11:00:00 3,7 1,5 2,9 2,4 3,4 7,8 17 9 25 13 SW 1017,5 10 60 0,0
05.12.2019 10:00:00 3,0 2,0 2,0 1,6 3,5 7,8 19 10 26 14 SW 1017,4 7 59 0,0

tt = Température de l'air
td = dewpoint
tt 5cm = Température de l'air 5cm
tt -5cm = Température de l'air -5cm
tt -20cm = Température de l'air -20cm
tt -100cm = Température de l'air -100cm
ff = Vitesse du vent
fx = gusts
dd = Direction du vent
ppp = reduced air pressure
vv = visibility
sd = Ensoleillement
rr = Quantités de précipitations

stations d'obs. à proximité